TimeHST,TemperatureF,Dew PointF,Humidity,Sea Level PressureIn,VisibilityMPH,Wind Direction,Wind SpeedMPH,Gust SpeedMPH,PrecipitationIn,Events,Conditions,WindDirDegrees,DateUTC
12:54 AM,66.0,62.1,87,29.98,10.0,Calm,Calm,-,N/A,,Clear,0,2013-01-14 10:54:00
1:54 AM,66.9,63.0,87,29.98,10.0,ENE,5.8,-,N/A,,Clear,60,2013-01-14 11:54:00
2:30 AM,66.2,62.6,88,29.96,10.0,East,3.5,-,N/A,,Scattered Clouds,80,2013-01-14 12:30:00
2:39 AM,68.0,64.4,88,29.96,10.0,East,3.5,-,N/A,,Mostly Cloudy,80,2013-01-14 12:39:00
2:54 AM,66.9,64.0,90,29.97,10.0,Calm,Calm,-,N/A,,Overcast,0,2013-01-14 12:54:00
3:12 AM,68.0,64.4,88,29.96,10.0,SE,3.5,-,N/A,,Scattered Clouds,140,2013-01-14 13:12:00
3:54 AM,68.0,64.0,87,29.96,10.0,SE,4.6,-,N/A,,Clear,140,2013-01-14 13:54:00
4:54 AM,69.1,66.0,90,29.95,9.0,SE,8.1,-,N/A,,Clear,130,2013-01-14 14:54:00
5:54 AM,70.0,66.9,90,29.96,9.0,SE,11.5,-,N/A,,Partly Cloudy,140,2013-01-14 15:54:00
6:54 AM,71.1,66.0,84,29.96,10.0,SE,12.7,-,N/A,,Scattered Clouds,140,2013-01-14 16:54:00
7:54 AM,73.9,66.9,79,29.98,10.0,SSE,12.7,-,N/A,,Mostly Cloudy,150,2013-01-14 17:54:00
8:54 AM,75.0,68.0,79,30.00,10.0,SSE,16.1,20.7,N/A,,Mostly Cloudy,150,2013-01-14 18:54:00
9:54 AM,77.0,69.1,76,29.99,10.0,SSE,20.7,28.8,N/A,,Mostly Cloudy,160,2013-01-14 19:54:00
10:54 AM,78.1,69.1,74,29.98,10.0,SSE,13.8,-,N/A,,Scattered Clouds,150,2013-01-14 20:54:00
11:54 AM,80.1,69.1,69,29.97,10.0,SSE,18.4,27.6,N/A,,Scattered Clouds,160,2013-01-14 21:54:00
12:01 PM,78.8,69.8,74,29.96,10.0,SSE,16.1,-,N/A,,Overcast,160,2013-01-14 22:01:00
12:54 PM,78.1,69.1,74,29.91,10.0,SSE,18.4,27.6,N/A,,Mostly Cloudy,150,2013-01-14 22:54:00
1:01 PM,78.8,68.0,69,29.90,10.0,SSE,18.4,26.5,N/A,,Mostly Cloudy,150,2013-01-14 23:01:00
1:54 PM,77.0,69.1,76,29.90,10.0,SSE,18.4,-,N/A,,Mostly Cloudy,150,2013-01-14 23:54:00
2:54 PM,75.9,69.1,79,29.90,10.0,South,19.6,23.0,0.00,Rain,Light Rain,180,2013-01-15 00:54:00
3:02 PM,71.6,66.2,83,29.90,2.5,WSW,12.7,26.5,0.00,Rain,Heavy Rain,240,2013-01-15 01:02:00
3:04 PM,71.6,66.2,83,29.90,1.5,WSW,11.5,26.5,0.05,Rain,Heavy Rain,250,2013-01-15 01:04:00
3:11 PM,71.6,66.2,83,29.91,2.5,WSW,8.1,18.4,0.18,Rain,Heavy Rain,250,2013-01-15 01:11:00
3:19 PM,71.6,68.0,88,29.91,3.0,SW,6.9,-,0.21,Rain,Rain,220,2013-01-15 01:19:00
3:43 PM,71.6,66.2,83,29.93,3.0,WNW,10.4,17.3,0.26,Rain,Rain,290,2013-01-15 01:43:00
3:54 PM,69.1,66.0,90,29.94,3.0,WNW,8.1,18.4,0.37,Rain,Heavy Rain,300,2013-01-15 01:54:00
4:01 PM,69.8,66.2,88,29.93,2.5,WNW,11.5,17.3,0.04,Rain,Heavy Rain,300,2013-01-15 02:01:00
4:49 PM,66.2,64.4,94,29.95,2.0,WNW,8.1,-,0.11,Rain,Heavy Rain,290,2013-01-15 02:49:00
4:54 PM,66.0,64.0,93,29.96,2.5,WNW,6.9,-,0.12,Rain,Rain,290,2013-01-15 02:54:00
5:54 PM,66.9,64.0,90,29.97,4.0,North,6.9,-,0.25,Rain,Rain,350,2013-01-15 03:54:00
6:01 PM,66.2,64.4,94,29.95,4.0,NNW,6.9,-,0.01,Rain,Light Rain,340,2013-01-15 04:01:00
6:54 PM,68.0,64.9,90,29.96,5.0,NNE,3.5,-,0.06,,Overcast,20,2013-01-15 04:54:00
7:54 PM,68.0,64.9,90,29.97,7.0,NNE,3.5,-,0.01,Rain,Light Rain,20,2013-01-15 05:54:00
8:54 PM,68.0,66.0,93,29.96,10.0,Calm,Calm,-,0.00,,Overcast,0,2013-01-15 06:54:00
9:54 PM,69.1,66.0,90,29.96,10.0,Calm,Calm,-,N/A,,Overcast,0,2013-01-15 07:54:00
10:54 PM,69.1,64.9,87,29.96,10.0,Calm,Calm,-,0.00,,Mostly Cloudy,0,2013-01-15 08:54:00
11:54 PM,66.9,64.0,90,29.95,10.0,NNW,3.5,-,N/A,,Mostly Cloudy,330,2013-01-15 09:54:00